"Period start","avg(HW err(1)/warn(2) (#))","avg(Visibility (m))","avg(Weather code (#))","avg(Precip intensity (mm/h))","min(HW err(1)/warn(2) (#))","max(HW err(1)/warn(2) (#))","std(HW err(1)/warn(2) (#))","med(HW err(1)/warn(2) (#))","min(Visibility (m))","max(Visibility (m))","std(Visibility (m))","med(Visibility (m))","min(Weather code (#))","max(Weather code (#))","std(Weather code (#))","med(Weather code (#))","min(Precip intensity (mm/h))","max(Precip intensity (mm/h))","std(Precip intensity (mm/h))","med(Precip intensity (mm/h))"
2016-05-12 00:00:00,2,8218,71,0.23,2,2,0,2,6953,10473,980,8250,71,71,0,71,0.05,0.75,0.19,0.20
2016-05-12 00:10:00,2,9531,71,0.25,2,2,0,2,4800,13180,2830,9448,71,71,0,71,0.05,0.80,0.24,0.15
2016-05-12 00:20:00,2,6568,71,0.24,2,2,0,2,4943,9039,1139,6410,71,71,0,71,0.05,0.40,0.09,0.23
2016-05-12 00:30:00,2,8506,71,0.13,2,2,0,2,5759,11917,2174,8169,71,71,0,71,0.00,0.50,0.13,0.10
2016-05-12 00:40:00,2,9221,71,0.16,2,2,0,2,3216,13965,3840,9520,71,71,0,71,0.05,0.45,0.13,0.12
2016-05-12 00:50:00,2,10025,71,0.11,2,2,0,2,4122,24678,5782,7641,71,71,0,71,0.00,0.50,0.14,0.05
2016-05-12 01:00:00,2,10138,71,0.11,2,2,0,2,5608,12898,2487,10962,71,71,0,71,0.00,0.25,0.07,0.10
2016-05-12 01:10:00,2,12454,71,0.12,2,2,0,2,7543,14922,2487,13130,71,71,0,71,0.00,0.45,0.14,0.05
2016-05-12 01:20:00,2,17042,62,0.03,2,2,0,2,8014,28177,6021,17242,41,71,14,71,0.00,0.10,0.03,0.03
2016-05-12 01:30:00,2,12485,76,0.05,2,2,0,2,6634,20458,4252,11540,71,77,2,77,0.00,0.25,0.07,0.05
2016-05-12 01:40:00,2,11943,71,0.07,2,2,0,2,5391,22112,4737,10693,71,71,0,71,0.00,0.30,0.10,0.03
2016-05-12 01:50:00,2,13761,32,0.02,2,2,0,2,6123,27077,5577,13832,0,71,34,20,0.00,0.10,0.04,0.00
2016-05-12 02:00:00,2,15207,71,0.03,2,2,0,2,8612,28010,5115,13708,71,71,0,71,0.00,0.05,0.02,0.05
2016-05-12 02:10:00,2,16955,72,0.09,2,2,0,2,5180,32312,9792,13003,71,77,2,71,0.00,0.60,0.17,0.05
2016-05-12 02:20:00,2,12554,71,0.10,2,2,0,2,7863,18017,2852,11917,71,71,0,71,0.00,0.30,0.09,0.08
2016-05-12 02:30:00,2,15305,71,0.05,2,2,0,2,10850,24150,3730,14474,71,71,0,71,0.00,0.20,0.05,0.05
2016-05-12 02:40:00,2,16779,71,0.08,2,2,0,2,11601,22546,4039,16282,71,71,0,71,0.00,0.40,0.11,0.05
2016-05-12 02:50:00,2,19774,71,0.05,2,2,0,2,14134,25828,4098,18580,71,71,0,71,0.00,0.15,0.05,0.03
2016-05-12 03:00:00,2,16373,71,0.11,2,2,0,2,5966,30457,6330,16070,71,71,0,71,0.00,0.35,0.10,0.08
2016-05-12 03:10:00,2,16044,71,0.11,2,2,0,2,9353,26170,5657,15159,71,71,0,71,0.00,0.45,0.13,0.08
2016-05-12 03:20:00,2,12696,71,0.12,2,2,0,2,5154,24515,5565,12438,71,71,0,71,0.00,0.35,0.12,0.05
2016-05-12 03:30:00,2,11004,71,0.17,2,2,0,2,6591,16482,2856,10412,71,71,0,71,0.00,0.55,0.20,0.05
2016-05-12 03:40:00,2,12278,71,0.16,2,2,0,2,6841,18314,3986,12440,71,71,0,71,0.00,0.45,0.17,0.12
2016-05-12 03:50:00,2,12083,71,0.21,2,2,0,2,5518,20596,4935,13319,71,71,0,71,0.00,0.40,0.13,0.23
2016-05-12 04:00:00,2,18928,71,0.05,2,2,0,2,11109,29816,6432,16914,71,71,0,71,0.00,0.10,0.04,0.05
2016-05-12 04:10:00,2,15319,71,0.13,2,2,0,2,6230,22666,4646,16062,71,71,0,71,0.00,0.60,0.17,0.08
2016-05-12 04:20:00,2,25028,71,0.07,2,2,0,2,7351,47198,12280,21070,71,71,0,71,0.00,0.30,0.10,0.00
2016-05-12 04:30:00,2,25635,71,0.09,2,2,0,2,11255,36696,8159,25367,71,71,0,71,0.00,0.45,0.14,0.00
2016-05-12 04:40:00,2,26721,71,0.05,2,2,0,2,14187,47386,10027,25640,71,71,0,71,0.00,0.20,0.07,0.00
2016-05-12 04:50:00,2,35619,36,0.06,2,2,0,2,14874,48336,8903,37759,0,71,36,36,0.00,0.45,0.14,0.00
2016-05-12 05:00:00,2,28036,71,0.07,2,2,0,2,16350,46086,8379,27948,71,71,0,71,0.00,0.35,0.11,0.00
2016-05-12 05:10:00,2,30536,71,0.04,2,2,0,2,19156,42166,6819,31784,71,71,0,71,0.00,0.20,0.06,0.00
2016-05-12 05:20:00,2,28206,71,0.06,2,2,0,2,19168,37750,4588,28508,71,71,0,71,0.00,0.20,0.07,0.03
2016-05-12 05:30:00,2,31184,72,0.06,2,2,0,2,24514,38754,4455,30233,71,77,2,71,0.00,0.30,0.08,0.05
2016-05-12 05:40:00,2,36406,71,0.03,2,2,0,2,23740,48151,7094,34629,71,71,0,71,0.00,0.10,0.04,0.00
2016-05-12 05:50:00,2,42295,66,0.03,2,2,0,2,24838,50000,7519,43502,41,77,13,71,0.00,0.30,0.09,0.00
2016-05-12 06:00:00,2,38063,65,0.03,2,2,0,2,23025,46964,8587,42544,41,71,12,71,0.00,0.25,0.08,0.00
2016-05-12 06:10:00,2,31198,8,0.01,2,2,0,2,21673,47609,8429,29724,0,41,16,0,0.00,0.05,0.02,0.00
2016-05-12 06:20:00,2,35603,0,0.00,2,2,0,2,21642,50000,10063,33850,0,0,0,0,0.00,0.00,0.00,0.00
2016-05-12 06:30:00,2,35090,60,0.01,2,2,0,2,16878,50000,10174,34628,0,77,30,77,0.00,0.05,0.02,0.00
2016-05-12 06:40:00,2,38839,74,0.06,2,2,0,2,28953,50000,6199,37880,71,77,3,74,0.00,0.20,0.07,0.03
2016-05-12 06:50:00,2,31837,50,0.04,2,2,0,2,14246,41628,8675,29846,0,71,33,71,0.00,0.30,0.10,0.00
2016-05-12 07:00:00,2,34222,43,0.07,2,2,0,2,23727,48221,6182,34004,0,71,35,71,0.00,0.30,0.10,0.03
2016-05-12 07:10:00,2,18277,71,0.28,2,2,0,2,10432,32746,5715,16946,71,71,0,71,0.10,0.45,0.11,0.28
2016-05-12 07:20:00,2,19129,71,0.16,2,2,0,2,12860,25754,3352,18707,71,71,0,71,0.00,0.50,0.17,0.10
2016-05-12 07:30:00,2,21017,71,0.15,2,2,0,2,15221,30863,4330,20074,71,71,0,71,0.05,0.65,0.17,0.10
2016-05-12 07:40:00,2,23973,71,0.17,2,2,0,2,12327,47153,9745,23904,71,71,0,71,0.00,0.80,0.23,0.05
2016-05-12 07:50:00,2,25601,71,0.06,2,2,0,2,16545,32087,4294,26759,71,71,0,71,0.00,0.15,0.05,0.05
2016-05-12 08:00:00,2,31328,71,0.07,2,2,0,2,12937,47136,11112,32068,71,71,0,71,0.00,0.25,0.08,0.05
2016-05-12 08:10:00,2,29983,71,0.06,2,2,0,2,20608,41094,7022,29072,71,71,0,71,0.00,0.10,0.04,0.05
2016-05-12 08:20:00,2,33493,76,0.03,2,2,0,2,21725,50000,9503,30110,71,77,2,77,0.00,0.10,0.03,0.03
2016-05-12 08:30:00,2,35599,15,0.00,2,2,0,2,26541,50000,6378,35192,0,77,31,0,0.00,0.00,0.00,0.00
2016-05-12 08:40:00,2,40044,0,0.00,2,2,0,2,30102,49797,5903,41374,0,0,0,0,0.00,0.00,0.00,0.00
2016-05-12 08:50:00,2,37447,0,0.00,2,2,0,2,30262,44506,4378,37323,0,0,0,0,0.00,0.00,0.00,0.00
2016-05-12 09:00:00,2,40114,0,0.00,2,2,0,2,29108,48500,6312,40608,0,0,0,0,0.00,0.00,0.00,0.00
2016-05-12 09:10:00,2,38158,0,0.00,2,2,0,2,31038,43087,3294,38225,0,0,0,0,0.00,0.00,0.00,0.00
2016-05-12 09:20:00,2,41585,0,0.00,2,2,0,2,33550,50000,4728,42481,0,0,0,0,0.00,0.00,0.00,0.00
2016-05-12 09:30:00,2,42031,0,0.00,2,2,0,2,34830,50000,4560,42514,0,0,0,0,0.00,0.00,0.00,0.00
2016-05-12 09:40:00,2,37238,0,0.00,2,2,0,2,27729,48824,6122,36718,0,0,0,0,0.00,0.00,0.00,0.00
2016-05-12 09:50:00,2,46391,0,0.00,2,2,0,2,40295,50000,3978,48400,0,0,0,0,0.00,0.00,0.00,0.00
2016-05-12 10:00:00,2,46023,0,0.00,2,2,0,2,41775,50000,2716,45630,0,0,0,0,0.00,0.00,0.00,0.00
2016-05-12 10:10:00,2,45932,0,0.00,2,2,0,2,39802,50000,3802,46585,0,0,0,0,0.00,0.00,0.00,0.00
2016-05-12 10:20:00,2,44429,0,0.00,2,2,0,2,34807,49546,4677,45677,0,0,0,0,0.00,0.00,0.00,0.00
2016-05-12 10:30:00,2,48883,0,0.00,2,2,0,2,46450,50000,1186,49110,0,0,0,0,0.00,0.00,0.00,0.00
2016-05-12 10:40:00,2,46340,0,0.00,2,2,0,2,39106,50000,3908,47500,0,0,0,0,0.00,0.00,0.00,0.00
2016-05-12 10:50:00,2,45397,0,0.00,2,2,0,2,35957,50000,4544,46936,0,0,0,0,0.00,0.00,0.00,0.00
2016-05-12 11:00:00,2,41466,74,0.02,2,2,0,2,30168,48695,5610,41698,71,77,3,74,0.00,0.15,0.05,0.00
2016-05-12 11:10:00,2,39318,74,0.03,2,2,0,2,28512,46312,5388,40578,71,77,3,74,0.00,0.10,0.03,0.03
2016-05-12 11:20:00,2,34339,72,0.04,2,2,0,2,25201,43948,5747,34808,71,77,2,71,0.00,0.10,0.03,0.05
2016-05-12 11:30:00,2,31580,73,0.05,2,2,0,2,18411,41694,7706,32640,71,77,3,71,0.00,0.35,0.11,0.00
2016-05-12 11:40:00,2,27530,71,0.08,2,2,0,2,11289,43905,11103,27805,71,71,0,71,0.00,0.40,0.13,0.00
2016-05-12 11:50:00,2,32886,71,0.05,2,2,0,2,17175,41037,6700,33960,71,71,0,71,0.00,0.20,0.07,0.03
2016-05-12 12:00:00,2,27412,71,0.09,2,2,0,2,16295,38372,6257,27512,71,71,0,71,0.00,0.25,0.08,0.08
2016-05-12 12:10:00,2,31142,71,0.07,2,2,0,2,14655,47606,12035,27016,71,71,0,71,0.00,0.25,0.09,0.03
2016-05-12 12:20:00,2,44188,59,0.03,2,2,0,2,26637,50000,6950,46190,41,71,15,71,0.00,0.20,0.06,0.00
2016-05-12 12:30:00,2,42912,75,0.01,2,2,0,2,32108,50000,4896,42814,71,77,3,77,0.00,0.05,0.02,0.00
2016-05-12 12:40:00,2,42300,75,0.03,2,2,0,2,27652,50000,7747,42574,71,77,3,77,0.00,0.25,0.07,0.00
2016-05-12 12:50:00,2,34790,73,0.06,2,2,0,2,16551,46293,8673,37720,71,77,3,71,0.00,0.35,0.11,0.00
2016-05-12 13:00:00,2,38253,36,0.02,2,2,0,2,23517,50000,11315,38822,0,71,36,36,0.00,0.15,0.05,0.00
2016-05-12 13:10:00,2,43114,71,0.02,2,2,0,2,28304,50000,6897,44933,71,71,0,71,0.00,0.15,0.05,0.00
2016-05-12 13:20:00,2,43015,74,0.03,2,2,0,2,31595,50000,6805,44164,71,77,3,74,0.00,0.15,0.05,0.00
2016-05-12 13:30:00,2,44981,43,0.04,2,2,0,2,32378,50000,5958,48244,0,71,35,71,0.00,0.35,0.11,0.00
2016-05-12 13:40:00,2,38808,60,0.01,2,2,0,2,34538,45866,3669,37240,0,77,30,77,0.00,0.05,0.02,0.00
2016-05-12 13:50:00,2,36546,45,0.05,2,2,0,2,19549,50000,11028,34316,0,77,37,71,0.00,0.25,0.09,0.00
2016-05-12 14:00:00,2,41286,57,0.03,2,2,0,2,35527,47513,4373,41844,0,71,28,71,0.00,0.10,0.03,0.03
2016-05-12 14:10:00,2,40948,76,0.03,2,2,0,2,25506,48665,7282,44410,71,78,3,78,0.00,0.20,0.06,0.00
2016-05-12 14:20:00,2,44136,65,0.03,2,2,0,2,36872,50000,3715,44026,41,71,12,71,0.00,0.15,0.05,0.00
2016-05-12 14:30:00,2,43265,64,0.03,2,2,0,2,30109,50000,6332,44179,0,71,21,71,0.00,0.25,0.07,0.00
2016-05-12 14:40:00,2,48930,0,0.00,2,2,0,2,44063,50000,1887,50000,0,0,0,0,0.00,0.00,0.00,0.00
2016-05-12 14:50:00,2,47703,0,0.00,2,2,0,2,32531,50000,5317,50000,0,0,0,0,0.00,0.00,0.00,0.00
2016-05-12 15:00:00,2,49593,0,0.00,2,2,0,2,45929,50000,1221,50000,0,0,0,0,0.00,0.00,0.00,0.00
2016-05-12 15:10:00,2,50000,0,0.00,2,2,0,2,50000,50000,0,50000,0,0,0,0,0.00,0.00,0.00,0.00
2016-05-12 15:20:00,2,46173,14,0.00,2,2,0,2,38866,50000,4093,47673,0,71,28,0,0.00,0.00,0.00,0.00
2016-05-12 15:30:00,2,45603,23,0.00,2,2,0,2,28953,50000,6613,49110,0,78,36,0,0.00,0.00,0.00,0.00
2016-05-12 15:40:00,2,50000,0,0.00,2,2,0,2,50000,50000,0,50000,0,0,0,0,0.00,0.00,0.00,0.00
2016-05-12 15:50:00,2,49992,0,0.00,2,2,0,2,49922,50000,23,50000,0,0,0,0,0.00,0.00,0.00,0.00
2016-05-12 16:00:00,2,48846,0,0.00,2,2,0,2,38958,50000,3299,50000,0,0,0,0,0.00,0.00,0.00,0.00
2016-05-12 16:10:00,2,49320,0,0.00,2,2,0,2,43204,50000,2039,50000,0,0,0,0,0.00,0.00,0.00,0.00
2016-05-12 16:20:00,2,49364,0,0.00,2,2,0,2,46836,50000,1174,50000,0,0,0,0,0.00,0.00,0.00,0.00
2016-05-12 16:30:00,2,46572,0,0.00,2,2,0,2,36382,50000,4932,50000,0,0,0,0,0.00,0.00,0.00,0.00
2016-05-12 16:40:00,2,47104,7,0.00,2,2,0,2,25888,50000,7154,50000,0,71,21,0,0.00,0.00,0.00,0.00
2016-05-12 16:50:00,2,46203,58,0.03,2,2,0,2,29732,50000,6645,50000,0,77,29,71,0.00,0.25,0.08,0.00
2016-05-12 17:00:00,2,45162,44,0.01,2,2,0,2,36536,50000,4365,46774,0,78,36,71,0.00,0.05,0.02,0.00
2016-05-12 17:10:00,2,46284,77,0.01,2,2,0,2,40316,50000,3249,46458,71,78,2,78,0.00,0.05,0.02,0.00
2016-05-12 17:20:00,2,47053,16,0.00,2,2,0,2,36400,50000,4469,49890,0,78,31,0,0.00,0.00,0.00,0.00
2016-05-12 17:30:00,2,46381,61,0.01,2,2,0,2,36761,50000,3902,46200,0,77,24,74,0.00,0.05,0.02,0.00
2016-05-12 17:40:00,2,48393,39,0.00,2,2,0,2,44354,50000,2059,49409,0,78,39,39,0.00,0.00,0.00,0.00
2016-05-12 17:50:00,2,50000,0,0.00,2,2,0,2,50000,50000,0,50000,0,0,0,0,0.00,0.00,0.00,0.00
2016-05-12 18:00:00,2,49924,0,0.00,2,2,0,2,49237,50000,229,50000,0,0,0,0,0.00,0.00,0.00,0.00
2016-05-12 18:10:00,2,48966,0,0.00,2,2,0,2,43886,50000,1930,50000,0,0,0,0,0.00,0.00,0.00,0.00
2016-05-12 18:20:00,2,48883,0,0.00,2,2,0,2,43815,50000,2035,50000,0,0,0,0,0.00,0.00,0.00,0.00
2016-05-12 18:30:00,2,49593,0,0.00,2,2,0,2,47538,50000,837,50000,0,0,0,0,0.00,0.00,0.00,0.00
2016-05-12 18:40:00,2,49508,0,0.00,2,2,0,2,46560,50000,1025,50000,0,0,0,0,0.00,0.00,0.00,0.00
2016-05-12 18:50:00,2,50000,0,0.00,2,2,0,2,50000,50000,0,50000,0,0,0,0,0.00,0.00,0.00,0.00
2016-05-12 19:00:00,2,48893,0,0.00,2,2,0,2,46784,50000,1366,50000,0,0,0,0,0.00,0.00,0.00,0.00
2016-05-12 19:10:00,2,49710,0,0.00,2,2,0,2,47103,50000,869,50000,0,0,0,0,0.00,0.00,0.00,0.00
2016-05-12 19:20:00,2,49875,0,0.00,2,2,0,2,49255,50000,255,50000,0,0,0,0,0.00,0.00,0.00,0.00
2016-05-12 19:30:00,2,49877,0,0.00,2,2,0,2,49363,50000,246,50000,0,0,0,0,0.00,0.00,0.00,0.00
2016-05-12 19:40:00,2,50000,0,0.00,2,2,0,2,50000,50000,0,50000,0,0,0,0,0.00,0.00,0.00,0.00
2016-05-12 19:50:00,2,48774,0,0.00,2,2,0,2,42916,50000,2462,50000,0,0,0,0,0.00,0.00,0.00,0.00
2016-05-12 20:00:00,2,49874,0,0.00,2,2,0,2,48822,50000,352,50000,0,0,0,0,0.00,0.00,0.00,0.00
2016-05-12 20:10:00,2,50000,0,0.00,2,2,0,2,50000,50000,0,50000,0,0,0,0,0.00,0.00,0.00,0.00
2016-05-12 20:20:00,2,47774,0,0.00,2,2,0,2,41518,50000,2711,48818,0,0,0,0,0.00,0.00,0.00,0.00
2016-05-12 20:30:00,2,47131,0,0.00,2,2,0,2,41121,50000,2826,47418,0,0,0,0,0.00,0.00,0.00,0.00
2016-05-12 20:40:00,2,48612,0,0.00,2,2,0,2,40752,50000,2962,50000,0,0,0,0,0.00,0.00,0.00,0.00
2016-05-12 20:50:00,2,46063,0,0.00,2,2,0,2,39081,50000,4208,48262,0,0,0,0,0.00,0.00,0.00,0.00
2016-05-12 21:00:00,2,45498,0,0.00,2,2,0,2,34538,50000,5952,49043,0,0,0,0,0.00,0.00,0.00,0.00
2016-05-12 21:10:00,2,44678,0,0.00,2,2,0,2,37302,50000,4750,44941,0,0,0,0,0.00,0.00,0.00,0.00
2016-05-12 21:20:00,2,46418,0,0.00,2,2,0,2,37412,50000,4258,47774,0,0,0,0,0.00,0.00,0.00,0.00
2016-05-12 21:30:00,2,45862,0,0.00,2,2,0,2,40536,49274,2772,46306,0,0,0,0,0.00,0.00,0.00,0.00
2016-05-12 21:40:00,2,45702,0,0.00,2,2,0,2,39483,50000,3670,46745,0,0,0,0,0.00,0.00,0.00,0.00
2016-05-12 21:50:00,2,46668,0,0.00,2,2,0,2,38376,50000,3649,47130,0,0,0,0,0.00,0.00,0.00,0.00
2016-05-12 22:00:00,2,40704,0,0.00,2,2,0,2,29863,50000,5877,42032,0,0,0,0,0.00,0.00,0.00,0.00
2016-05-12 22:10:00,2,48823,0,0.00,2,2,0,2,44833,50000,2038,50000,0,0,0,0,0.00,0.00,0.00,0.00
2016-05-12 22:20:00,2,48673,0,0.00,2,2,0,2,45510,50000,1765,50000,0,0,0,0,0.00,0.00,0.00,0.00
2016-05-12 22:30:00,2,41243,0,0.00,2,2,0,2,32528,50000,5983,40478,0,0,0,0,0.00,0.00,0.00,0.00
2016-05-12 22:40:00,2,45163,0,0.00,2,2,0,2,34828,50000,4790,45668,0,0,0,0,0.00,0.00,0.00,0.00
2016-05-12 22:50:00,2,46087,0,0.00,2,2,0,2,36962,50000,3965,46750,0,0,0,0,0.00,0.00,0.00,0.00
2016-05-12 23:00:00,2,40444,0,0.00,2,2,0,2,24429,50000,7779,42337,0,0,0,0,0.00,0.00,0.00,0.00
2016-05-12 23:10:00,2,48211,0,0.00,2,2,0,2,43353,50000,2529,50000,0,0,0,0,0.00,0.00,0.00,0.00
2016-05-12 23:20:00,2,46490,0,0.00,2,2,0,2,39644,50000,3968,48060,0,0,0,0,0.00,0.00,0.00,0.00
2016-05-12 23:30:00,2,45695,0,0.00,2,2,0,2,33113,50000,5076,46654,0,0,0,0,0.00,0.00,0.00,0.00
2016-05-12 23:40:00,2,46196,0,0.00,2,2,0,2,35593,50000,5330,48871,0,0,0,0,0.00,0.00,0.00,0.00
2016-05-12 23:50:00,2,39477,0,0.00,2,2,0,2,26911,50000,9059,42649,0,0,0,0,0.00,0.00,0.00,0.00
